Content
SEND FEEDBACK

Daily
Averages
Monthly
Summary
Brazil

BRUSQUE, SANTA CATARINA


Home > South America > Brazil > Santa Catarina
Elevation: 79 feet     Latitude: 27 01S     Longitude: 048 54W

WEATHER
 
SELECT A DAY
Number of Records: 179,015;   Date Range: 6/30/96 - 7/8/14
 
SHARE

PRINT THIS DATA

[ ← Previous Day ]
WEATHER ALMANAC - JANUARY 31, 2013
[ Next Day → ]
[ °C ]   °F
Weather ElementAverageHighLow
Temperature79.5 °F86 °F (1:00 pm)73.4 °F (6:00 am)
Dewpoint70.6 °F72 °F (4:00 pm)68 °F (1:00 am)
Humidity73.6 %88 % (6:00 am)58 % (4:00 pm)
Barometer29.92 in29.98 in (1:00 am)29.86 in (5:00 pm)
Wind Speed10.5 mph17.3 mph (3:00 pm)
Weather ElementAverage
Visibility7.1 mi
Wind DirectionWSW (235.2 °)

Weather ElementTotal
Precipitation---
Cooling Degree Days14.7 (Base 65)
Growing Degree Days29.7 (Base 50)
Averaged from 27 records on January 31, 2013
WEATHER CONDITIONS BREAKOUT
WIND DIRECTION BREAKOUT
WEATHER BY HOUR - JANUARY 31, 2013
[ °C ]   °F
Local TimeTemperatureDewpointHumidityBarometerVisibilityWind DirectionWind SpeedGust SpeedPrecipitationEventsConditions
1:00 AM77.0 °F68.0 °F74 %29.98 in6.2 miNorth (10°)5.8 mphMostly Cloudy
2:00 AM77.0 °F68.0 °F74 %29.98 in6.2 miNorth (360°)5.8 mphMostly Cloudy
3:00 AM75.2 °F69.8 °F83 %29.95 in6.2 miNorth (350°)3.5 mphMostly Cloudy
4:00 AM75.0 °F69.0 °F77 %29.95 in12.0 miNNW (330°)3.5 mphMostly Cloudy
4:00 AM75.2 °F69.8 °F83 %29.95 in6.2 miNNW (330°)3.5 mphMostly Cloudy
5:00 AM75.2 °F68.0 °F78 %29.92 in6.2 miNW (320°)4.6 mphMostly Cloudy
6:00 AM73.4 °F69.8 °F88 %29.92 in6.2 miWNW (300°)5.8 mphMostly Cloudy
7:00 AM73.4 °F69.8 °F88 %29.92 in6.2 miWNW (290°)3.5 mphMostly Cloudy
8:00 AM75.2 °F69.8 °F83 %29.95 in6.2 miWNW (290°)6.9 mphScattered Clouds
9:00 AM77.0 °F69.8 °F78 %29.95 in6.2 miWNW (290°)6.9 mphMostly Cloudy
10:00 AM80.0 °F70.0 °F65 %29.95 in12.0 miNW (320°)11.5 mphPartly Cloudy
10:00 AM80.6 °F69.8 °F70 %29.95 in6.2 miNW (320°)11.5 mphScattered Clouds
11:00 AM80.6 °F71.6 °F74 %29.95 in6.2 miNNW (340°)12.7 mphScattered Clouds
12:00 PM82.4 °F71.6 °F70 %29.92 in6.2 miNNW (330°)15.0 mphScattered Clouds
1:00 PM86.0 °F71.6 °F62 %29.92 in6.2 miNNW (330°)15.0 mphScattered Clouds
2:00 PM86.0 °F71.6 °F62 %29.89 in6.2 miNNW (340°)15.0 mphScattered Clouds
3:00 PM86.0 °F71.6 °F62 %29.89 in6.2 miNorth (10°)17.3 mphScattered Clouds
4:00 PM84.0 °F72.0 °F58 %29.89 in12.0 miNorth16.1 mphPartly Cloudy
4:00 PM84.2 °F71.6 °F66 %29.89 in6.2 miNorth (360°)16.1 mphScattered Clouds
5:00 PM84.2 °F71.6 °F66 %29.86 in6.2 miNorth (10°)13.8 mphScattered Clouds
6:00 PM84.2 °F71.6 °F66 %29.86 in6.2 miNorth (360°)13.8 mphMostly Cloudy
7:00 PM80.6 °F71.6 °F74 %29.86 in6.2 miNorth (360°)12.7 mphMostly Cloudy
8:00 PM80.6 °F71.6 °F74 %29.89 in6.2 miNorth (10°)12.7 mphMostly Cloudy
9:00 PM78.8 °F71.6 °F78 %29.89 in6.2 miNorth (10°)11.5 mphScattered Clouds
10:00 PM78.0 °F72.0 °F77 %29.92 in12.0 miNorth (10°)12.7 mphPartly Cloudy
10:00 PM78.8 °F71.6 °F78 %29.92 in6.2 miNorth (10°)12.7 mphScattered Clouds
11:00 PM78.8 °F71.6 °F78 %29.92 in6.2 miNorth (360°)13.8 mphScattered Clouds
Hourly data recorded from SBNF, located miles away from Brusque, Santa Catarina







STORIES FROM OUR PARTNERS